CZ-6A DEB, 54276

Orbit data source: Space-Track

CZ-6A DEB, 54276 is space debris in SSO originally from a launch on Fri, 11 Nov 2022 UTC launched from the Taiyaun Space Center, China (TSC). Debris objects in space refer to the collection of defunct objects orbiting the Earth. Examples of debris include non-operational satellites, rocket bodies, and fragments generated from explosions, collisions, or faulty payload assembly.

Loading next visibility...
Identifier
54276, 2022-151T
Orbit
SSO
Country
Flag of CNCN / PRC
Related business
Manufacturer
SAST
Mission
Spacecraft
Bus & Motor
Unknown
Mass
Unknown
Launch date (UTC)
2022-11-11 (4 years ago)
Launch vehicle
Unknown
Launch site
Taiyaun Space Center, China (TSC)
Object type
Payload
Rocket body
Debris
Shape & HBR
Unknown shape, 0.1 m
Radar Cross Section
Medium (>0.1 m² and <1 m²)

Expand to show TLE details & history
Last TLE update: 19 hours ago

TLE from 19 hours ago
0 CZ-6A DEB
1 54276U 22151T   26263.25945960  .00000281  00000-0  28341-3 0  9996
2 54276  98.8632 182.8508 0203679 281.0226  76.8079 13.76429191193061
Epoch: 2026-09-20T06:13Z
TLE epoch observation values (Epoch: 2026-09-20T06:13:37.309Z)
Latitude
0.00001°
Longitude
90.28914°
Altitude
948.149 km
Speed
7.393 km/s
True Right ascension
12h 11m 24s
True Declination
0° 00' 00"
Sunlit
Object was in daylight at epoch
Visualization orbit readout
Latitude
Unknown
Longitude
Unknown
Altitude
Unknown
Speed
Unknown
Apparent Right ascension
Unknown
Apparent Declination
Unknown
Sunlit
N/A
Visualization observer readout
Local Sidereal Time
18:17:57
Azimuth
Unknown
Elevation
Unknown
Doppler factor
Unknown
Orbital elements
Apogee altitude
1,123.546 km
Perigee altitude
824.058 km
Semi-major axis
7,351.939 km
Eccentricity
0.02037
Inclination
98.8632°
RAAN
182.8508°
Arg. of periapsis
281.0226°
True anomaly
79.09297°
Mean anomaly
76.8079°
Eccentric anomaly
77.94918°
Mean motion
3.44303 °/min
Orbital period
104.56 mins
BSTAR
0.00028341
Loading maneuver chart data...
Computing Atmospheric mass density...

Documentation

Showing up to 5 results
|